TimePST,TemperatureF,Dew PointF,Humidity,Sea Level PressureIn,VisibilityMPH,Wind Direction,Wind SpeedMPH,Gust SpeedMPH,PrecipitationIn,Events,Conditions,WindDirDegrees,DateUTC
12:00 AM,44.2,40.6,87,30.52,-9999.0,WNW,1.2,-,N/A,,Unknown,290,2013-12-24 08:00:00
1:00 AM,43.2,39.6,87,30.54,-9999.0,NNW,1.2,-,N/A,,Unknown,330,2013-12-24 09:00:00
2:00 AM,40.5,37.6,89,30.55,-9999.0,ENE,1.2,-,N/A,,Unknown,60,2013-12-24 10:00:00
3:00 AM,38.7,36.1,91,30.57,-9999.0,NNE,1.2,-,N/A,,Unknown,20,2013-12-24 11:00:00
4:00 AM,37,35,90,30.58,,NE,1.2,,,,,40,2013-12-24 12:00:00
4:00 AM,37.2,35.1,92,30.58,-9999.0,NE,1.2,-,N/A,,Unknown,40,2013-12-24 12:00:00
5:00 AM,37.0,35.1,93,30.59,-9999.0,Calm,Calm,-,N/A,,Unknown,0,2013-12-24 13:00:00
6:00 AM,36.0,34.0,93,30.60,-9999.0,North,2.3,-,N/A,,Unknown,10,2013-12-24 14:00:00
7:00 AM,36.7,34.9,93,30.60,-9999.0,North,2.3,-,N/A,,Unknown,10,2013-12-24 15:00:00
8:00 AM,39.4,37.8,94,30.61,-9999.0,North,1.2,-,N/A,,Unknown,10,2013-12-24 16:00:00
9:00 AM,40.3,38.7,94,30.62,-9999.0,NNE,1.2,-,N/A,,Unknown,20,2013-12-24 17:00:00
10:00 AM,42,40,91,30.63,,ENE,1.2,,,,,70,2013-12-24 18:00:00
10:00 AM,42.1,40.3,93,30.63,-9999.0,ENE,1.2,-,N/A,,Unknown,70,2013-12-24 18:00:00
11:00 AM,44.1,40.8,88,30.63,-9999.0,SE,2.3,-,N/A,,Unknown,140,2013-12-24 19:00:00
12:00 PM,44.1,39.4,84,30.63,-9999.0,SSW,1.2,-,N/A,,Unknown,210,2013-12-24 20:00:00
1:00 PM,44.6,39.6,82,30.63,-9999.0,SW,1.2,-,N/A,,Unknown,220,2013-12-24 21:00:00
2:00 PM,46.8,38.3,72,30.62,-9999.0,SSW,2.3,-,N/A,,Unknown,210,2013-12-24 22:00:00
3:00 PM,44.4,39.0,81,30.62,-9999.0,SSW,1.2,-,N/A,,Unknown,210,2013-12-24 23:00:00
4:00 PM,44,39,78,30.62,,SW,1.2,,,,,220,2013-12-25 00:00:00
4:00 PM,43.9,39.4,84,30.62,-9999.0,SW,1.2,-,N/A,,Unknown,220,2013-12-25 00:00:00
5:00 PM,41.9,39.7,92,30.62,-9999.0,Calm,Calm,-,N/A,,Unknown,0,2013-12-25 01:00:00
6:00 PM,41.7,38.3,88,30.61,-9999.0,ENE,1.2,-,N/A,,Unknown,70,2013-12-25 02:00:00
7:00 PM,40.6,37.9,90,30.60,-9999.0,NNE,2.3,-,N/A,,Unknown,20,2013-12-25 03:00:00
8:00 PM,40.8,38.3,91,30.60,-9999.0,NE,1.2,-,N/A,,Unknown,50,2013-12-25 04:00:00
9:00 PM,39.7,37.2,91,30.59,-9999.0,North,2.3,-,N/A,,Unknown,360,2013-12-25 05:00:00
10:00 PM,39,36,87,30.60,,NE,2.3,,,,,40,2013-12-25 06:00:00
10:00 PM,38.8,34.7,85,30.60,-9999.0,NE,2.3,-,N/A,,Unknown,40,2013-12-25 06:00:00
11:00 PM,39.4,37.0,91,30.59,-9999.0,NNE,2.3,-,N/A,,Unknown,20,2013-12-25 07:00:00